[[{"header":{"parameterUnit":"m.s-1","parameterCategory":1,"la1":30.2991,"la2":30.254,"lo1":-89.0895,"lo2":-89.0444,"dy":0.0017,"dx":0.0017,"nx":28,"ny":28,"refTime":"2023-09-08T21:00:00:Z","depth":0,"parameterNumber":2,"parameterNumberName":"U-component_of_WINDS"},"data":[0,0,0,0,0,0,0,0,0,0,0,0,0,0,0,0,0,0,0,0,0,0,0,0,0,0,0,0,0,0,0,0,0,0,0,0,0,0,0,0,0,0,0,0,0,0,0,0,0,0,0,0,0,0,0,0,0,0,-1.6657,-1.6657,0,-1.6657,-1.6657,-1.6657,-1.6545,-1.6542,-1.6539,-1.6536,-1.654,-1.6542,-1.6545,0,0,0,0,0,0,0,0,0,0,0,0,0,-1.6564,-1.6566,-1.6657,-1.6657,-1.6657,-1.6657,-1.6657,-1.6657,-1.6545,-1.6542,-1.6538,-1.6535,-1.6539,-1.6542,-1.6546,0,0,0,0,0,0,0,0,0,0,0,0,0,-1.6588,-1.6567,-1.6657,-1.6601,-1.6596,-1.6657,-1.6657,-1.6657,-1.6546,-1.6541,-1.6537,-1.6533,-1.6538,-1.6542,-1.6546,-1.6661,0,0,-1.6559,-1.6561,0,0,0,0,0,0,0,0,-1.6587,-1.6592,-1.6609,-1.6605,-1.66,-1.6596,-1.6625,-1.6658,-1.6547,-1.6565,-1.6536,-1.6531,-1.6562,-1.6564,-1.6574,-1.6661,-1.6661,-1.6559,-1.6562,-1.6564,-1.6565,0,0,0,0,0,0,0,-1.6585,-1.6591,-1.6657,-1.661,-1.6604,-1.6577,-1.6576,-1.6631,-1.6589,-1.6563,-1.6555,-1.6556,-1.6559,-1.657,-1.6573,-1.6661,-1.6559,-1.6563,-1.6566,-1.6567,-1.6841,-1.6845,0,0,0,0,0,0,-1.6591,-1.659,-1.6657,-1.6657,-1.6582,-1.6582,-1.6581,-1.6602,-1.6588,-1.6581,-1.656,-1.6551,-1.6565,-1.6568,-1.6573,-1.6705,-1.6564,-1.6568,-1.657,-1.6836,-1.6842,-1.6847,0,0,0,0,0,0,-1.6589,-1.6598,-1.6657,-1.6621,-1.6627,-1.6589,-1.6613,-1.6604,-1.6615,-1.6585,-1.6578,-1.6579,-1.6562,-1.6567,-1.6639,-1.6704,-1.657,-1.6574,-1.683,-1.6838,-1.6844,-1.6971,0,0,0,0,0,0,-1.6587,-1.6598,-1.6641,-1.6623,-1.6629,-1.6723,-1.6617,-1.6607,-1.6622,-1.6611,-1.6601,-1.6596,-1.6559,-1.6633,-1.6643,-1.6707,-1.6577,-1.6824,-1.6834,-1.6842,-1.6961,-1.6982,-1.7,0,0,0,0,0,-1.6584,-1.6678,-1.6644,-1.6652,-1.6682,-1.6727,-1.673,-1.6685,-1.6628,-1.6671,-1.6651,-1.6596,-1.6695,-1.6642,-1.6652,-1.6718,-1.682,-1.6831,-1.6841,-1.6953,-1.6978,-1.6999,0,0,0,0,0,0,-1.6707,-1.6675,-1.6636,-1.6727,-1.673,-1.6708,-1.6761,-1.6713,-1.6734,-1.6722,-1.6666,-1.6665,-1.6746,-1.6739,-1.668,-1.6828,-1.6748,-1.6761,-1.6829,-1.6852,-1.6871,-1.6871,-1.6581,0,0,0,0,0,-1.6744,-1.6782,-1.6752,-1.6836,-1.6839,-1.68,-1.6818,-1.6782,-1.6784,-1.6785,-1.6771,-1.6775,-1.6807,-1.6829,-1.6857,-1.696,-1.6955,-1.701,-1.7029,-1.7045,-1.7057,-1.7109,-1.7133,-1.6881,-1.6881,-1.6881,0,0,-1.6822,-1.6809,-1.6837,-1.686,-1.6858,-1.6899,-1.6802,-1.685,-1.688,-1.6793,-1.6859,-1.6849,-1.685,-1.6938,-1.6975,-1.6935,-1.7125,-1.7059,-1.7072,-1.7075,-1.7122,-1.7146,-1.7167,-1.6889,-1.6887,-1.6886,0,0,-1.6984,-1.6979,-1.7046,-1.7046,-1.7043,-1.7016,-1.7033,-1.7017,-1.7006,-1.7072,-1.7006,-1.7042,-1.7099,-1.7102,-1.7111,-1.7272,-1.7222,-1.7283,-1.7383,-1.7435,-1.7454,-1.7472,-1.7528,-1.7549,-1.7295,-1.7296,-1.7296,0,-1.7082,-1.714,-1.7088,-1.7139,-1.7151,-1.7071,-1.7139,-1.7142,-1.715,-1.716,-1.7114,-1.7182,-1.7177,-1.7263,-1.7302,-1.7313,-1.733,-1.7284,-1.7456,-1.7472,-1.7488,-1.7541,-1.7562,-1.7303,-1.7302,-1.7302,-1.7301,0,-1.7259,-1.73,-1.7355,-1.7362,-1.738,-1.744,-1.7397,-1.7422,-1.7384,-1.7362,-1.743,-1.7421,-1.7445,-1.7463,-1.7428,-1.7544,-1.7518,-1.7465,-1.7383,-1.752,-1.7569,-1.7589,-1.7314,-1.7311,-1.7309,-1.7307,0,0,-1.75,-1.7475,-1.7496,-1.7497,-1.7488,-1.7519,-1.7576,-1.7597,-1.7618,-1.7627,-1.7672,-1.7721,-1.767,-1.7681,-1.7645,-1.7691,-1.7817,-1.7631,-1.763,-1.7665,-1.7943,-1.7982,-1.8006,-1.7784,-1.7787,-1.779,-1.7942,0,-1.7656,-1.7748,-1.7702,-1.78,-1.7837,-1.7762,-1.781,-1.781,-1.7791,-1.782,-1.7799,-1.7834,-1.7766,-1.7772,-1.7813,-1.7793,-1.7872,-1.7782,-1.7825,-1.7827,-1.7826,-1.8032,-1.8074,-1.8218,-1.7961,-1.7964,-1.7967,0,-1.785,-1.7864,-1.7965,-1.7947,-1.7961,-1.8005,-1.802,-1.8049,-1.8047,-1.803,-1.8041,-1.7994,-1.8048,-1.7967,-1.8041,-1.798,-1.7995,-1.7988,-1.7992,-1.7994,-1.7905,-1.8038,-1.8263,-1.8284,-1.7997,-1.7994,-1.7992,0,-1.8013,-1.8057,-1.8123,-1.8127,-1.8108,-1.814,-1.8134,-1.8128,-1.8143,-1.8157,-1.8166,-1.8187,-1.8198,-1.8215,-1.8176,-1.8121,-1.8254,-1.817,-1.8241,-1.8242,-1.8272,-1.827,-1.8501,-1.8284,-1.8284,-1.8283,-1.8283,0,-1.8192,-1.8257,-1.8195,-1.8236,-1.8306,-1.8253,-1.8324,-1.831,-1.8305,-1.8341,-1.8278,-1.8314,-1.826,-1.8291,-1.8261,-1.8325,-1.8331,-1.8318,-1.8309,-1.8323,-1.8325,-1.8332,-1.832,-1.8289,-1.8288,-1.8287,-1.8286,0,-1.8386,-1.8348,-1.8414,-1.839,-1.8385,-1.8438,-1.8417,-1.8454,-1.843,-1.8477,-1.8485,-1.8448,-1.848,-1.8442,-1.8473,-1.8452,-1.8539,-1.8516,-1.8539,-1.8532,-1.8603,-1.8597,-1.8846,-1.8875,-1.8641,-1.8643,-1.8645,0,-1.8502,-1.8549,-1.8529,-1.8548,-1.8545,-1.8577,-1.8591,-1.8541,-1.8558,-1.8559,-1.8596,-1.8623,-1.8641,-1.8697,-1.8674,-1.8696,-1.8672,-1.8758,-1.8675,-1.8687,-1.8672,-1.8669,-1.8672,-1.8775,-1.8777,-1.878,-1.8782,0,-1.8711,-1.8689,-1.8711,-1.8727,-1.8745,-1.8755,-1.8761,-1.8781,-1.8727,-1.8751,-1.8782,-1.8797,-1.8826,-1.8854,-1.8869,-1.8864,-1.8814,-1.8808,-1.8825,-1.8839,-1.8849,-1.8843,-1.8583,-1.8802,-1.88,-1.8799,-1.8797,-1.8797,-1.8868,-1.8906,-1.8897,-1.8923,-1.8921,-1.8928,-1.896,-1.8939,-1.8964,-1.8982,-1.8952,-1.8991,-1.8987,-1.9002,-1.9002,-1.9033,-1.8996,-1.9022,-1.9028,-1.9034,-1.9044,-1.8846,-1.9036,-1.9035,-1.9035,-1.9034,-1.9034,0,-1.9072,-1.9062,-1.9087,-1.9095,-1.9116,-1.9066,-1.9069,-1.909,-1.9125,-1.9124,-1.9143,-1.9179,-1.9205,-1.9183,-1.9204,-1.9233,-1.921,-1.924,-1.9236,-1.9236,-1.9077,-1.9059,-1.9257,-1.9257,-1.9257,-1.9257,-1.9257,-1.9257,-1.918,-1.9241,-1.9218,-1.9277,-1.9266,-1.9303,-1.9309,-1.9314,-1.9313,-1.9355,-1.9375,-1.936,-1.9351,-1.9371,-1.9392,-1.9385,-1.9395,-1.9433,-1.9418,-1.9269,-1.9247,-1.9226,-1.9209,-1.9436,-1.9436,-1.9573,-1.9575,-1.9576]},{"header":{"parameterUnit":"m.s-1","parameterCategory":1,"la1":30.2991,"la2":30.254,"lo1":-89.0895,"lo2":-89.0444,"dy":0.0017,"dx":0.0017,"nx":28,"ny":28,"refTime":"2023-09-08T21:00:00:Z","depth":0,"parameterNumber":3,"parameterNumberName":"V-component_of_WINDS"},"data":[0,0,0,0,0,0,0,0,0,0,0,0,0,0,0,0,0,0,0,0,0,0,0,0,0,0,0,0,0,0,0,0,0,0,0,0,0,0,0,0,0,0,0,0,0,0,0,0,0,0,0,0,0,0,0,0,0,0,-2.1832,-2.1833,0,-2.1894,-2.1895,-2.1896,-2.1912,-2.1912,-2.1911,-2.1911,-2.1971,-2.1973,-2.1975,0,0,0,0,0,0,0,0,0,0,0,0,0,-2.1723,-2.1725,-2.1832,-2.1833,-2.1834,-2.1894,-2.1895,-2.1896,-2.1912,-2.1912,-2.1911,-2.1911,-2.197,-2.1972,-2.1975,0,0,0,0,0,0,0,0,0,0,0,0,0,-2.1776,-2.1725,-2.1832,-2.1849,-2.1851,-2.1894,-2.1895,-2.1896,-2.1912,-2.1912,-2.1911,-2.191,-2.1969,-2.1972,-2.1975,-2.2004,0,0,-2.1984,-2.1985,0,0,0,0,0,0,0,0,-2.1773,-2.178,-2.1846,-2.1848,-2.185,-2.1895,-2.1879,-2.1932,-2.1912,-2.1889,-2.1911,-2.191,-2.1946,-2.1951,-2.1963,-2.2007,-2.201,-2.1984,-2.1986,-2.1987,-2.1988,0,0,0,0,0,0,0,-2.1769,-2.1777,-2.1857,-2.1847,-2.1849,-2.1852,-2.1859,-2.1889,-2.1919,-2.1891,-2.1892,-2.19,-2.1947,-2.196,-2.1965,-2.201,-2.1984,-2.1987,-2.1989,-2.199,-2.208,-2.2081,0,0,0,0,0,0,-2.1763,-2.1774,-2.1855,-2.1858,-2.181,-2.1855,-2.1862,-2.1881,-2.1919,-2.1925,-2.19,-2.19,-2.1956,-2.1961,-2.1967,-2.2003,-2.1987,-2.199,-2.1992,-2.2079,-2.208,-2.2081,0,0,0,0,0,0,-2.1761,-2.177,-2.1852,-2.1817,-2.1827,-2.1857,-2.1878,-2.1883,-2.1896,-2.1926,-2.1931,-2.1909,-2.1956,-2.1963,-2.1995,-2.2005,-2.1991,-2.1994,-2.2079,-2.208,-2.2081,-2.2075,0,0,0,0,0,0,-2.1757,-2.1769,-2.1782,-2.1817,-2.1829,-2.188,-2.1879,-2.1884,-2.1902,-2.1902,-2.1936,-2.194,-2.1956,-2.199,-2.1998,-2.2009,-2.1996,-2.2078,-2.2079,-2.208,-2.2075,-2.2076,-2.2077,0,0,0,0,0,-2.1754,-2.1777,-2.1782,-2.1792,-2.1846,-2.1881,-2.1888,-2.1906,-2.1903,-2.1914,-2.1934,-2.1939,-2.2003,-2.1994,-2.2002,-2.2014,-2.2077,-2.2079,-2.208,-2.2074,-2.2076,-2.2077,0,0,0,0,0,0,-2.1741,-2.1782,-2.1788,-2.1824,-2.1849,-2.1883,-2.1899,-2.1907,-2.1932,-2.1932,-2.1952,-2.1959,-2.199,-2.2005,-2.1994,-2.2044,-2.204,-2.2043,-2.2033,-2.2034,-2.2036,-2.2031,-2.1999,0,0,0,0,0,-2.1742,-2.1769,-2.1803,-2.1831,-2.1843,-2.1869,-2.1885,-2.1897,-2.1923,-2.1933,-2.1955,-2.1979,-2.2004,-2.202,-2.2045,-2.2077,-2.2084,-2.209,-2.2091,-2.2092,-2.2094,-2.2111,-2.2114,-2.2086,-2.2086,-2.2086,0,0,-2.1745,-2.1771,-2.1786,-2.1829,-2.185,-2.1875,-2.1878,-2.1905,-2.1923,-2.1937,-2.1969,-2.1985,-2.2013,-2.2045,-2.206,-2.2059,-2.2103,-2.2094,-2.2094,-2.2096,-2.2113,-2.2115,-2.2118,-2.2087,-2.2087,-2.2086,0,0,-2.1764,-2.1786,-2.1812,-2.1833,-2.1865,-2.1882,-2.1888,-2.1921,-2.1933,-2.1966,-2.1976,-2.1998,-2.2042,-2.2061,-2.2076,-2.2102,-2.2108,-2.2109,-2.2115,-2.2132,-2.2134,-2.2136,-2.2144,-2.2147,-2.2112,-2.2112,-2.2112,0,-2.1763,-2.1803,-2.1824,-2.1851,-2.1868,-2.1883,-2.1908,-2.1927,-2.1965,-2.1976,-2.1975,-2.203,-2.205,-2.2086,-2.2092,-2.2104,-2.2111,-2.2105,-2.2132,-2.2134,-2.2137,-2.2144,-2.2148,-2.2112,-2.2112,-2.2112,-2.2112,0,-2.18,-2.1828,-2.1844,-2.1882,-2.1902,-2.1927,-2.1951,-2.1968,-2.1978,-2.1995,-2.2027,-2.2052,-2.2081,-2.2091,-2.2101,-2.2128,-2.2127,-2.2129,-2.2125,-2.2139,-2.2147,-2.215,-2.2111,-2.2111,-2.2111,-2.2112,0,0,-2.1811,-2.186,-2.1866,-2.1883,-2.1919,-2.194,-2.1966,-2.1997,-2.201,-2.2036,-2.2057,-2.2094,-2.2096,-2.2113,-2.2125,-2.214,-2.2157,-2.214,-2.2141,-2.2141,-2.2188,-2.2186,-2.2189,-2.2162,-2.2162,-2.2163,-2.2185,0,-2.1834,-2.1882,-2.1901,-2.194,-2.1965,-2.1979,-2.2001,-2.2025,-2.2041,-2.2064,-2.2081,-2.2107,-2.2108,-2.2118,-2.2134,-2.2152,-2.2167,-2.2151,-2.218,-2.2181,-2.2172,-2.2193,-2.2191,-2.2211,-2.2188,-2.2189,-2.2189,0,-2.1866,-2.1893,-2.1934,-2.1967,-2.1978,-2.1998,-2.2027,-2.2049,-2.2076,-2.2087,-2.2106,-2.2118,-2.2144,-2.2139,-2.2175,-2.2163,-2.2177,-2.2187,-2.2189,-2.2191,-2.2185,-2.2195,-2.2218,-2.222,-2.2195,-2.2194,-2.2194,0,-2.1869,-2.1915,-2.1946,-2.196,-2.1999,-2.2013,-2.2029,-2.2056,-2.2073,-2.2098,-2.2109,-2.2136,-2.2151,-2.2171,-2.2189,-2.2184,-2.2222,-2.222,-2.2231,-2.223,-2.2237,-2.2237,-2.2261,-2.2248,-2.2247,-2.2247,-2.2247,0,-2.1891,-2.1915,-2.1948,-2.1966,-2.1994,-2.2015,-2.2041,-2.2059,-2.2082,-2.2103,-2.2117,-2.2137,-2.2159,-2.2181,-2.2195,-2.2222,-2.2229,-2.2237,-2.224,-2.2235,-2.2234,-2.2244,-2.2242,-2.2248,-2.2248,-2.2248,-2.2248,0,-2.1898,-2.1921,-2.1955,-2.199,-2.1999,-2.2018,-2.2047,-2.2065,-2.2082,-2.2108,-2.2116,-2.2142,-2.2169,-2.2189,-2.2223,-2.2232,-2.226,-2.2264,-2.2252,-2.2253,-2.2263,-2.2261,-2.2294,-2.2299,-2.2282,-2.2282,-2.2283,0,-2.191,-2.193,-2.1967,-2.1983,-2.2,-2.2025,-2.2043,-2.2064,-2.2082,-2.2114,-2.2127,-2.2155,-2.2178,-2.222,-2.2241,-2.2267,-2.2271,-2.2281,-2.2275,-2.2269,-2.227,-2.2268,-2.227,-2.2281,-2.2281,-2.2281,-2.2281,0,-2.1929,-2.194,-2.1965,-2.1995,-2.2016,-2.204,-2.2064,-2.2076,-2.2101,-2.212,-2.2148,-2.2166,-2.2202,-2.2228,-2.2257,-2.2272,-2.228,-2.2283,-2.2287,-2.2281,-2.2273,-2.2277,-2.2253,-2.2282,-2.2282,-2.2282,-2.2282,-2.2282,-2.1939,-2.1956,-2.1985,-2.2013,-2.2034,-2.2056,-2.2074,-2.2094,-2.2118,-2.215,-2.2161,-2.2189,-2.2214,-2.2253,-2.2269,-2.2291,-2.2291,-2.2297,-2.2298,-2.2299,-2.2298,-2.227,-2.2296,-2.2296,-2.2296,-2.2296,-2.2296,0,-2.1957,-2.1977,-2.2002,-2.2036,-2.2058,-2.2065,-2.2092,-2.2109,-2.2135,-2.2159,-2.2182,-2.2213,-2.2239,-2.2263,-2.229,-2.2303,-2.2307,-2.2309,-2.2308,-2.2311,-2.2297,-2.2291,-2.2305,-2.2305,-2.2305,-2.2305,-2.2305,-2.2305,-2.1969,-2.1999,-2.2013,-2.2053,-2.2072,-2.2101,-2.2116,-2.2136,-2.2155,-2.219,-2.2213,-2.2228,-2.2252,-2.228,-2.2304,-2.231,-2.2319,-2.232,-2.2327,-2.2313,-2.2312,-2.2311,-2.2305,-2.2322,-2.2322,-2.2339,-2.2339,-2.2339]}]]